OBJECT Y, 51846

Orbit data source: Space-Track

You're viewing an Uncataloged Satellite

Recently launched and/or uncataloged satellites may have evolving metadata. Metadata may include but not limited to: Owner, Maufacturer, Bus, Motor, and Mission.

OBJECT Y, 51846 is a satellite owned by Changguang WJ (CN) in SSO that was launched on Sun, 27 Feb 2022 UTC via a CHANG ZHENG 8 launch vehicle from the Wenchang Satellite Launch Center (WSC). Unknown objects in Earth's orbit typically refer to objects detected orbiting the Earth but have not yet been identified or cataloged. These objects could be anything from previously untracked satellites, spent rocket stages, debris from satellite collisions, or even natural meteoroids temporarily captured by Earth's gravity.

Loading next visibility...
Identifier
51846, 2022-019Y
Orbit
SSO
Country
Flag of CNCN / PRC
Related business
Manufacturer
Changguang WJ
Mission
Operational Commercial Imaging
Bus & Motor
JL-1, Unknown motor
Mass
43 kg wet, 43 kg dry
Launch date (UTC)
2022-02-27 (4 years ago)
Launch vehicle
CHANG ZHENG 8
Launch site
Wenchang Satellite Launch Center (WSC)
Object type
Unknown
Shape & HBR
Box + 2 Pan, 0.8 m
Radar Cross Section
2.000 m², Medium (>0.1 m² and < 1m²)

Expand to show TLE details & history
Last TLE update: 20 hours ago

TLE from 20 hours ago
0 OBJECT Y
1 51846U 22019Y   25348.95244032  .00037702  00000-0  59946-3 0  9994
2 51846  97.3809  71.0385 0004266 112.1076 248.0631 15.53213327211035
Epoch: 2025-12-14T22:51Z
TLE epoch observation values (Epoch: 2025-12-14T22:51:30.843Z)
Latitude
0.00003°
Longitude
4.30201°
Altitude
411.57 km
Speed
7.663 km/s
True Right ascension
04h 44m 09s
True Declination
0° 00' 00"
Sunlit
Object was in full shadow at epoch
Visualization orbit readout
Latitude
Unknown
Longitude
Unknown
Altitude
Unknown
Speed
Unknown
Apparent Right ascension
Unknown
Apparent Declination
Unknown
Sunlit
N/A
Visualization observer readout
Local Sidereal Time
17:09:12
Azimuth
Unknown
Elevation
Unknown
Doppler factor
Unknown
Orbital elements
Apogee altitude
407.165 km
Perigee altitude
401.378 km
Semi-major axis
6,782.409 km
Eccentricity
0.00043
Inclination
97.3809°
RAAN
71.0385°
Arg. of periapsis
112.1076°
True anomaly
248.01776°
Mean anomaly
248.0631°
Eccentric anomaly
248.04043°
Mean motion
3.88568 °/min
Orbital period
92.65 mins
BSTAR
0.00059946
Loading maneuver chart data...
Computing Atmospheric mass density...
Loading historical data...
Loading historical data...
Loading historical data...
Loading historical data...
Loading historical data...
Loading historical data...
Loading historical data...

Documentation

Showing up to 5 results
|